Showing default

CYGFM08, 41888

Orbit data source: Space-Track

CYGFM08, 41888 is an American payload satellite in LEO that was launched on Thu, 15 Dec 2016 UTC via a PEGASUS XL launch vehicle from the Pegasus Launch, Eastern Range Air Space (ERAS). Payload-class satellites include a variety of spacecraft equipped with specific instruments for various scientific and technological missions. These include communications satellites like Starlink; space stations such as the ISS; scientific satellites like the Hubble; Earth observation satellites from companies like Planet Labs, Umbra, and HawkEye 360; GPS; miniature CubeSats for education and research; and military/defense satellites.

Loading next visibility...
Identifier
41888, 2016-078E
Orbit
LEO
Last TLE update
8 hours ago
Origin
Manufacturer
SST-US
Mission
Extended mission Civil Science
Bus & Motor
CYGNSS, Unknown motor
Mass
29 kg wet, 29 kg dry
Launch date (UTC)
2016-12-15 (8 years ago)
Launch vehicle
PEGASUS XL
Launch site
Pegasus Launch, Eastern Range Air Space (ERAS)
Object type
Payload
Rocket body
Debris
Shape & HBR
Half Hex Cyl + 2 Pan, 1.7 m
Radar Cross Section
0.450 m², Medium (>0.1 m² and < 1m²)

Expand to show TLE details & history

TLE from 8 hours ago
0 CYGFM08
1 41888U 16078E   25129.08593971  .00015880  00000-0  37254-3 0  9998
2 41888  34.9483   7.7146 0012589 321.6501  38.3323 15.41081603466298
Epoch: 2025-05-09T02:03Z
Definitive object data (Epoch: 2025-05-09T02:03:45.19Z)
Latitude
-0.00002°
Longitude
109.62914°
Altitude
435.079 km
Speed
7.657 km/s
True Right ascension
00h 30m 51s
True Declination
0° 00' 00"
Sunlit
Object was in daylight at TLE epoch
Visualization TLE readout
Latitude
-24.20252°
Longitude
67.82694°
Altitude
439.409 km
Speed
7.654 km/s
Apparent Right ascension
00h 58m 11s
Apparent Declination
-50° 46' 07"
Sunlit
Object is in daylight
Visualization observer readout
Local Sidereal Time
17:47:47
Azimuth
128.024° SE
Elevation
-40.069°
Doppler factor
1
Orbital elements
Apogee altitude
454.791 km
Perigee altitude
437.609 km
Semi-major axis
6,824.337 km
Eccentricity
0.0012589
Inclination
34.9483°
RAAN
7.7146°
Arg. of periapsis
321.6501°
True anomaly
38.42188°
Mean anomaly
38.3323°
Eccentric anomaly
38.37708°
Mean motion
3.84993 °/min
BSTAR
0.00037254
Orbital period
93.51 mins
Loading maneuver chart data...
Loading SW <> Apogee altitude chart data...
Loading historical data...
Loading historical data...
Loading historical data...
Loading historical data...
Loading historical data...
Loading historical data...
Loading historical data...

CYGFM08 Visibility forecast

Observer location: undefined°, undefined°

Span
Click to sort rows by Start time (UTC) header in descending order
Start Az.
Max El. time (UTC)
Max El. Az.
Max El.
End time (UTC)
End Az.
4 mins2025-05-09 21:02:25.738Z211.191° SW2025-05-09 21:03:25.738Z181.673° SSW27.263°2025-05-09 21:06:25.738Z111.173° ESE
4 mins2025-05-09 22:40:25.738Z232.873° WSW2025-05-09 22:42:25.738Z169.136° S27.634°2025-05-09 22:44:25.738Z127.65° SE
|